BOOZR25 KMCF-KMCF

Flight info

Callsign BOOZR25
Flight time 1h 22m
Altitude 0
Route
Aircraft F22/M-VGDW/C

Departure

Time 2026-05-08 21:45
Airport MacDill Air Force Base (KMCF)

Arrival

Time 2026-05-08 23:08
Airport MacDill Air Force Base (KMCF)
Time Latitude Longitude Altitude Speed Heading
2026-05-08 21:44 27.83778 -82.53231 20 ft 0 kts 40°
2026-05-08 21:45 27.83895 -82.53119 20 ft 93 kts 40°
2026-05-08 21:45 27.84838 -82.52210 1197 ft 248 kts 43°
2026-05-08 21:46 27.86616 -82.50399 4283 ft 462 kts 45°
2026-05-08 21:46 27.89700 -82.47075 7176 ft 747 kts 45°
2026-05-08 21:46 27.93871 -82.42448 8091 ft 913 kts 45°
2026-05-08 21:46 27.98415 -82.37286 10499 ft 896 kts 46°
2026-05-08 21:47 28.02320 -82.32541 21614 ft 752 kts 47°
2026-05-08 21:47 28.04981 -82.28803 35937 ft 397 kts 58°
2026-05-08 21:47 28.06186 -82.26389 49459 ft 461 kts 53°
2026-05-08 21:47 28.08140 -82.23225 53628 ft 507 kts 54°
2026-05-08 21:48 28.10199 -82.19797 53405 ft 547 kts 56°
2026-05-08 21:48 28.12317 -82.15966 52081 ft 600 kts 57°
2026-05-08 21:48 28.14524 -82.11719 50675 ft 648 kts 57°
2026-05-08 21:48 28.16853 -82.07244 50165 ft 675 kts 57°
2026-05-08 21:49 28.19211 -82.02568 51036 ft 673 kts 59°
2026-05-08 21:49 28.21435 -81.97928 52333 ft 668 kts 60°
2026-05-08 21:49 28.23580 -81.93291 52458 ft 680 kts 62°
2026-05-08 21:49 28.25726 -81.88406 51516 ft 705 kts 63°
2026-05-08 21:50 28.27835 -81.83245 49844 ft 737 kts 65°
2026-05-08 21:50 28.29903 -81.77772 47934 ft 769 kts 65°
2026-05-08 21:50 28.32020 -81.72060 45920 ft 797 kts 65°
2026-05-08 21:50 28.34180 -81.66160 43502 ft 823 kts 65°
2026-05-08 21:51 28.36422 -81.60058 40744 ft 851 kts 65°
2026-05-08 21:51 28.38710 -81.53797 38092 ft 860 kts 65°
2026-05-08 21:51 28.40941 -81.47629 36275 ft 825 kts 66°
2026-05-08 21:51 28.43018 -81.41715 35355 ft 788 kts 66°
2026-05-08 21:52 28.44972 -81.36017 34864 ft 758 kts 67°
2026-05-08 21:52 28.46787 -81.30522 35097 ft 726 kts 68°
2026-05-08 21:52 28.48445 -81.25246 36281 ft 689 kts 68°
2026-05-08 21:52 28.49967 -81.20250 38198 ft 653 kts 69°
2026-05-08 21:53 28.51357 -81.15489 39710 ft 633 kts 70°
2026-05-08 21:53 28.52653 -81.10748 40830 ft 624 kts 71°
2026-05-08 21:53 28.53839 -81.05990 41455 ft 624 kts 72°
2026-05-08 21:53 28.54899 -81.01175 41504 ft 634 kts 75°
2026-05-08 21:54 28.55825 -80.96214 41035 ft 650 kts 77°
2026-05-08 21:54 28.56588 -80.91074 40168 ft 668 kts 80°
2026-05-08 21:54 28.57165 -80.85740 38870 ft 688 kts 83°
2026-05-08 21:54 28.57537 -80.80238 36960 ft 709 kts 85°
2026-05-08 21:55 28.57709 -80.74554 33925 ft 729 kts 88°
2026-05-08 21:55 28.57605 -80.69137 29183 ft 635 kts 93°
2026-05-08 21:55 28.56984 -80.64424 23550 ft 582 kts 102°
2026-05-08 21:56 28.56150 -80.56120 21358 ft 430 kts 63°
2026-05-08 21:56 28.57696 -80.54554 25214 ft 246 kts 14°
2026-05-08 21:56 28.59310 -80.54223 24457 ft 232 kts 353°
2026-05-08 21:56 28.61206 -80.54823 22053 ft 312 kts 332°
2026-05-08 21:57 28.63571 -80.56427 20910 ft 476 kts 328°
2026-05-08 21:57 28.66547 -80.58496 19814 ft 524 kts 329°
2026-05-08 21:57 28.69835 -80.60650 18535 ft 563 kts 330°
2026-05-08 21:57 28.73281 -80.62970 16956 ft 577 kts 324°
2026-05-08 21:58 28.76050 -80.65882 17034 ft 507 kts 305°
2026-05-08 21:58 28.74865 -80.68354 17564 ft 463 kts 189°
2026-05-08 21:58 28.72198 -80.69416 18254 ft 304 kts 256°
2026-05-08 21:58 28.72063 -80.70628 21014 ft 205 kts 249°
2026-05-08 21:59 28.71332 -80.72058 20829 ft 228 kts 223°
2026-05-08 21:59 28.69831 -80.72657 20428 ft 239 kts 189°
2026-05-08 21:59 28.68060 -80.72419 19396 ft 274 kts 166°
2026-05-08 21:59 28.66271 -80.71659 19205 ft 265 kts 161°
2026-05-08 22:00 28.64618 -80.71098 19482 ft 236 kts 170°
2026-05-08 22:00 28.63047 -80.70902 19465 ft 220 kts 182°
2026-05-08 22:00 28.61537 -80.70894 19328 ft 215 kts 184°
2026-05-08 22:00 28.60041 -80.70931 19060 ft 216 kts 186°
2026-05-08 22:01 28.58527 -80.71059 18745 ft 220 kts 190°
2026-05-08 22:01 28.57013 -80.71313 18486 ft 219 kts 195°
2026-05-08 22:01 28.55566 -80.71712 18300 ft 214 kts 201°
2026-05-08 22:01 28.54184 -80.72287 18112 ft 210 kts 208°
2026-05-08 22:02 28.52900 -80.73059 17868 ft 208 kts 217°
2026-05-08 22:02 28.51631 -80.73864 17507 ft 217 kts 202°
2026-05-08 22:02 28.50036 -80.74049 16695 ft 247 kts 177°
2026-05-08 22:02 28.48338 -80.73490 16190 ft 258 kts 155°
2026-05-08 22:03 28.46942 -80.72337 16296 ft 236 kts 134°
2026-05-08 22:03 28.46071 -80.70886 16484 ft 213 kts 113°
2026-05-08 22:03 28.45708 -80.69290 16272 ft 209 kts 93°
2026-05-08 22:03 28.45761 -80.67613 15888 ft 215 kts 79°
2026-05-08 22:04 28.46102 -80.65965 15703 ft 211 kts 69°
2026-05-08 22:04 28.46648 -80.64475 15682 ft 198 kts 60°
2026-05-08 22:04 28.47329 -80.63159 15595 ft 191 kts 54°
2026-05-08 22:04 28.48052 -80.61890 15390 ft 192 kts 53°
2026-05-08 22:05 28.48776 -80.60595 15141 ft 196 kts 55°
2026-05-08 22:05 28.49518 -80.59287 14955 ft 196 kts 52°
2026-05-08 22:05 28.50311 -80.58066 14822 ft 193 kts 49°
2026-05-08 22:05 28.51183 -80.56916 14698 ft 191 kts 44°
2026-05-08 22:06 28.52117 -80.55848 14558 ft 190 kts 40°
2026-05-08 22:06 28.53086 -80.54831 14397 ft 189 kts 39°
2026-05-08 22:06 28.54065 -80.53834 14238 ft 189 kts 39°
2026-05-08 22:06 28.55034 -80.52826 14083 ft 189 kts 40°
2026-05-08 22:07 28.56025 -80.51849 13897 ft 188 kts 32°
2026-05-08 22:07 28.57208 -80.51177 13589 ft 193 kts 18°
2026-05-08 22:07 28.58527 -80.50833 13359 ft 194 kts
2026-05-08 22:07 28.59872 -80.50784 13335 ft 191 kts 356°
2026-05-08 22:08 28.61153 -80.50910 13475 ft 179 kts 351°
2026-05-08 22:08 28.62353 -80.51146 13538 ft 173 kts 347°
2026-05-08 22:08 28.63564 -80.51472 13512 ft 184 kts 344°
2026-05-08 22:08 28.64808 -80.51858 13618 ft 186 kts 343°
2026-05-08 22:09 28.66032 -80.52248 13865 ft 179 kts 343°
2026-05-08 22:09 28.67224 -80.52596 14094 ft 175 kts 345°
2026-05-08 22:09 28.68418 -80.52874 14209 ft 177 kts 348°
2026-05-08 22:09 28.69646 -80.53048 14259 ft 183 kts 353°
2026-05-08 22:10 28.70936 -80.53071 14344 ft 187 kts
2026-05-08 22:10 28.72230 -80.52892 14494 ft 187 kts
2026-05-08 22:10 28.73526 -80.52692 14731 ft 212 kts
2026-05-08 22:10 28.75183 -80.52451 17030 ft 257 kts 12°
2026-05-08 22:11 28.76640 -80.51530 21499 ft 224 kts 60°
2026-05-08 22:11 28.76655 -80.49872 25117 ft 219 kts 112°
2026-05-08 22:11 28.75788 -80.48356 26328 ft 238 kts 125°
2026-05-08 22:11 28.74742 -80.46725 27117 ft 276 kts 125°
2026-05-08 22:12 28.73549 -80.44764 27720 ft 325 kts 123°
2026-05-08 22:12 28.72240 -80.42518 28948 ft 350 kts 123°
2026-05-08 22:12 28.70832 -80.40077 30160 ft 409 kts 123°
2026-05-08 22:12 28.69126 -80.37163 31458 ft 474 kts 124°
2026-05-08 22:13 28.67133 -80.33827 32644 ft 552 kts 124°
2026-05-08 22:13 28.64745 -80.29893 32514 ft 644 kts 125°
2026-05-08 22:13 28.62018 -80.25539 32497 ft 701 kts 126°
2026-05-08 22:13 28.59069 -80.20921 32482 ft 724 kts 126°
2026-05-08 22:14 28.56213 -80.16262 32471 ft 713 kts 124°
2026-05-08 22:14 28.53477 -80.11759 32463 ft 659 kts 125°
2026-05-08 22:14 28.50927 -80.07716 32459 ft 616 kts 126°
2026-05-08 22:14 28.48465 -80.03818 32461 ft 602 kts 125°
2026-05-08 22:15 28.46101 -79.99919 32463 ft 593 kts 124°
2026-05-08 22:15 28.43912 -79.96065 32455 ft 570 kts 122°
2026-05-08 22:15 28.40815 -79.93927 32407 ft 534 kts 201°
2026-05-08 22:15 28.39047 -79.96885 31365 ft 508 kts 283°
2026-05-08 22:16 28.39584 -80.00848 31864 ft 510 kts 278°
2026-05-08 22:16 28.39976 -80.04897 31661 ft 521 kts 282°
2026-05-08 22:16 28.41076 -80.08858 30839 ft 531 kts 295°
2026-05-08 22:17 28.44668 -80.16137 30427 ft 530 kts 304°
2026-05-08 22:17 28.46933 -80.19432 30214 ft 529 kts 311°
2026-05-08 22:17 28.49395 -80.22538 30270 ft 527 kts 312°
2026-05-08 22:17 28.51926 -80.25554 30473 ft 525 kts 314°
2026-05-08 22:18 28.54541 -80.28462 30508 ft 527 kts 316°
2026-05-08 22:18 28.57269 -80.31258 30406 ft 528 kts 318°
2026-05-08 22:18 28.60109 -80.33920 30349 ft 528 kts 320°
2026-05-08 22:19 28.65821 -80.39166 30476 ft 527 kts 320°
2026-05-08 22:19 28.71604 -80.44313 30427 ft 528 kts 320°
2026-05-08 22:20 28.77278 -80.49564 30418 ft 523 kts 319°
2026-05-08 22:20 28.79858 -80.52296 30107 ft 494 kts 312°
2026-05-08 22:20 28.81992 -80.55284 29390 ft 480 kts 305°
2026-05-08 22:20 28.83725 -80.58524 28101 ft 480 kts 298°
2026-05-08 22:21 28.85019 -80.62040 27207 ft 477 kts 289°
2026-05-08 22:21 28.85760 -80.65662 26965 ft 461 kts 280°
2026-05-08 22:21 28.86031 -80.69257 26505 ft 453 kts 273°
2026-05-08 22:21 28.85837 -80.72834 26054 ft 448 kts 264°
2026-05-08 22:22 28.85183 -80.76266 25910 ft 438 kts 257°
2026-05-08 22:22 28.84141 -80.79501 25778 ft 430 kts 249°
2026-05-08 22:22 28.82780 -80.82416 26021 ft 414 kts 243°
2026-05-08 22:22 28.81225 -80.85258 24819 ft 434 kts 240°
2026-05-08 22:23 28.79471 -80.88128 23840 ft 446 kts 237°
2026-05-08 22:23 28.77532 -80.90877 23687 ft 438 kts 232°
2026-05-08 22:23 28.75477 -80.93404 23499 ft 432 kts 229°
2026-05-08 22:23 28.73269 -80.95685 23422 ft 425 kts 221°
2026-05-08 22:24 28.70838 -80.97600 23403 ft 426 kts 214°
2026-05-08 22:24 28.68200 -80.99170 23406 ft 430 kts 207°
2026-05-08 22:24 28.65377 -81.00362 23408 ft 435 kts 199°
2026-05-08 22:24 28.62424 -81.01170 23409 ft 438 kts 193°
2026-05-08 22:25 28.59386 -81.01547 23407 ft 442 kts 184°
2026-05-08 22:25 28.56308 -81.01413 23403 ft 444 kts 175°
2026-05-08 22:25 28.53256 -81.00791 23401 ft 446 kts 167°
2026-05-08 22:25 28.50285 -80.99726 23402 ft 448 kts 160°
2026-05-08 22:26 28.47453 -80.98244 23400 ft 449 kts 150°
2026-05-08 22:26 28.44931 -80.96166 23399 ft 449 kts 137°
2026-05-08 22:26 28.42836 -80.93541 23399 ft 449 kts 125°
2026-05-08 22:26 28.41254 -80.90540 23398 ft 447 kts 114°
2026-05-08 22:27 28.40189 -80.87236 23397 ft 445 kts 103°
2026-05-08 22:27 28.39668 -80.83776 23396 ft 443 kts 92°
2026-05-08 22:27 28.39681 -80.80302 23396 ft 439 kts 82°
2026-05-08 22:27 28.40193 -80.76895 23394 ft 436 kts 72°
2026-05-08 22:28 28.41162 -80.73646 23392 ft 433 kts 64°
2026-05-08 22:28 28.42536 -80.70616 23389 ft 429 kts 55°
2026-05-08 22:28 28.44254 -80.67860 23384 ft 426 kts 47°
2026-05-08 22:28 28.46269 -80.65399 23380 ft 423 kts 40°
2026-05-08 22:29 28.48520 -80.63255 23376 ft 420 kts 33°
2026-05-08 22:29 28.50952 -80.61435 23372 ft 418 kts 27°
2026-05-08 22:29 28.53530 -80.59926 23372 ft 416 kts 21°
2026-05-08 22:29 28.56210 -80.58717 23374 ft 414 kts 16°
2026-05-08 22:30 28.58931 -80.57796 23377 ft 412 kts 11°
2026-05-08 22:30 28.61730 -80.57118 23378 ft 411 kts
2026-05-08 22:30 28.64562 -80.56668 23378 ft 410 kts
2026-05-08 22:30 28.67405 -80.56418 23378 ft 409 kts
2026-05-08 22:31 28.70245 -80.56338 23378 ft 408 kts 358°
2026-05-08 22:31 28.73083 -80.56398 23379 ft 408 kts 355°
2026-05-08 22:31 28.75893 -80.56774 23380 ft 405 kts 346°
2026-05-08 22:31 28.78591 -80.57670 23383 ft 403 kts 338°
2026-05-08 22:32 28.81133 -80.59035 23386 ft 402 kts 329°
2026-05-08 22:32 28.83458 -80.60801 23388 ft 402 kts 322°
2026-05-08 22:32 28.85196 -80.63175 22935 ft 410 kts 262°
2026-05-08 22:32 28.82973 -80.64530 17705 ft 493 kts 172°
2026-05-08 22:33 28.79485 -80.63935 15813 ft 604 kts 173°
2026-05-08 22:33 28.74354 -80.63450 12776 ft 852 kts 178°
2026-05-08 22:33 28.68516 -80.63340 10682 ft 667 kts 175°
2026-05-08 22:33 28.64769 -80.62300 11221 ft 489 kts 151°
2026-05-08 22:34 28.62265 -80.60046 9152 ft 441 kts 138°
2026-05-08 22:34 28.60270 -80.58028 10569 ft 310 kts 135°
2026-05-08 22:34 28.58768 -80.56485 9553 ft 291 kts 141°
2026-05-08 22:34 28.56060 -80.54213 6566 ft 709 kts 146°
2026-05-08 22:35 28.51301 -80.50460 5278 ft 837 kts 142°
2026-05-08 22:35 28.47904 -80.45913 8302 ft 699 kts 117°
2026-05-08 22:35 28.47216 -80.40657 10930 ft 696 kts 74°
2026-05-08 22:35 28.50147 -80.36507 7826 ft 728 kts 13°
2026-05-08 22:36 28.54399 -80.37816 12287 ft 626 kts 324°
2026-05-08 22:36 28.57026 -80.41231 11369 ft 524 kts 290°
2026-05-08 22:36 28.57681 -80.45061 9674 ft 457 kts 279°
2026-05-08 22:36 28.58145 -80.48322 9626 ft 379 kts 279°
2026-05-08 22:37 28.58623 -80.51272 9598 ft 417 kts 281°
2026-05-08 22:37 28.59301 -80.54777 9825 ft 495 kts 283°
2026-05-08 22:37 28.60218 -80.58761 10956 ft 539 kts 286°
2026-05-08 22:37 28.59859 -80.62174 10557 ft 439 kts 173°
2026-05-08 22:38 28.56907 -80.60563 8807 ft 468 kts 145°
2026-05-08 22:38 28.54497 -80.58444 6585 ft 409 kts 141°
2026-05-08 22:38 28.54133 -80.55553 4314 ft 375 kts 93°
2026-05-08 22:38 28.52951 -80.53455 4236 ft 229 kts 142°
2026-05-08 22:39 28.51588 -80.52887 4347 ft 201 kts 163°
2026-05-08 22:39 28.50331 -80.52638 4578 ft 192 kts 160°
2026-05-08 22:39 28.48713 -80.51792 5085 ft 260 kts 146°
2026-05-08 22:39 28.47271 -80.50691 5381 ft 251 kts 143°
2026-05-08 22:40 28.45770 -80.49635 5291 ft 257 kts 146°
2026-05-08 22:40 28.44515 -80.48815 5572 ft 147 kts 146°
2026-05-08 22:40 28.43681 -80.48441 5283 ft 135 kts 159°
2026-05-08 22:40 28.42468 -80.48128 4665 ft 193 kts 165°
2026-05-08 22:41 28.41227 -80.48133 5046 ft 170 kts 178°
2026-05-08 22:41 28.40091 -80.48270 5075 ft 161 kts 180°
2026-05-08 22:41 28.38967 -80.48441 4921 ft 164 kts 180°
2026-05-08 22:41 28.37809 -80.48569 4759 ft 171 kts 178°
2026-05-08 22:42 28.36605 -80.48687 4687 ft 176 kts 179°
2026-05-08 22:42 28.35434 -80.48873 5001 ft 158 kts 183°
2026-05-08 22:42 28.34429 -80.49164 5194 ft 148 kts 185°
2026-05-08 22:42 28.33366 -80.49298 5111 ft 159 kts 177°
2026-05-08 22:43 28.32241 -80.49368 5181 ft 162 kts 176°
2026-05-08 22:43 28.31113 -80.49444 5283 ft 164 kts 177°
2026-05-08 22:43 28.29942 -80.49541 5281 ft 173 kts 178°
2026-05-08 22:43 28.28707 -80.49631 5237 ft 184 kts 182°
2026-05-08 22:44 28.27390 -80.49683 5176 ft 194 kts 183°
2026-05-08 22:44 28.26031 -80.49789 5259 ft 195 kts 184°
2026-05-08 22:44 28.24694 -80.49814 5443 ft 190 kts 179°
2026-05-08 22:44 28.23360 -80.49769 5443 ft 197 kts 179°
2026-05-08 22:45 28.21950 -80.49754 5358 ft 206 kts 180°
2026-05-08 22:45 28.20530 -80.49766 5538 ft 200 kts 178°
2026-05-08 22:45 28.19129 -80.49669 5567 ft 204 kts 176°
2026-05-08 22:45 28.17683 -80.49622 5499 ft 212 kts 180°
2026-05-08 22:46 28.16696 -80.49635 5454 ft 217 kts 181°
2026-05-08 22:46 28.15176 -80.49692 5451 ft 219 kts 182°
2026-05-08 22:46 28.13170 -80.49775 5468 ft 216 kts 182°
2026-05-08 22:46 28.11882 -80.49825 5376 ft 168 kts 182°
2026-05-08 22:47 28.10728 -80.49855 5372 ft 164 kts 181°
2026-05-08 22:47 28.09561 -80.49884 5338 ft 172 kts 181°
2026-05-08 22:47 28.08740 -80.49899 5318 ft 183 kts 181°
2026-05-08 22:47 28.07392 -80.49934 5332 ft 209 kts 181°
2026-05-08 22:48 28.05840 -80.49978 5357 ft 236 kts 181°
2026-05-08 22:48 28.03989 -80.50112 5938 ft 307 kts 193°
2026-05-08 22:48 28.02199 -80.51305 9396 ft 287 kts 236°
2026-05-08 22:48 28.01883 -80.53325 13637 ft 252 kts 284°
2026-05-08 22:49 28.02331 -80.55288 16704 ft 285 kts 259°
2026-05-08 22:49 28.00929 -80.59165 20741 ft 305 kts 256°
2026-05-08 22:49 28.00458 -80.61640 20680 ft 339 kts 263°
2026-05-08 22:50 28.00181 -80.64375 21000 ft 360 kts 267°
2026-05-08 22:50 27.99996 -80.67295 21654 ft 381 kts 268°
2026-05-08 22:50 27.99736 -80.70335 22291 ft 395 kts 264°
2026-05-08 22:50 27.99302 -80.73452 22924 ft 406 kts 262°
2026-05-08 22:51 27.98773 -80.76621 23555 ft 413 kts 260°
2026-05-08 22:51 27.98189 -80.79834 24184 ft 420 kts 259°
2026-05-08 22:51 27.97582 -80.83040 24803 ft 425 kts 259°
2026-05-08 22:51 27.96948 -80.86327 25431 ft 430 kts 259°
2026-05-08 22:52 27.96299 -80.89656 26059 ft 435 kts 259°
2026-05-08 22:52 27.95641 -80.93016 26686 ft 440 kts 259°
2026-05-08 22:52 27.94975 -80.96414 27313 ft 444 kts 259°
2026-05-08 22:52 27.94303 -80.99850 27942 ft 449 kts 259°
2026-05-08 22:53 27.93626 -81.03313 28569 ft 453 kts 259°
2026-05-08 22:53 27.92943 -81.06812 29196 ft 457 kts 259°
2026-05-08 22:53 27.92257 -81.10338 29823 ft 462 kts 259°
2026-05-08 22:53 27.91565 -81.13906 30450 ft 466 kts 259°
2026-05-08 22:54 27.90869 -81.17500 31077 ft 471 kts 259°
2026-05-08 22:54 27.90167 -81.21137 31705 ft 475 kts 259°
2026-05-08 22:54 27.89459 -81.24820 31927 ft 482 kts 259°
2026-05-08 22:54 27.88845 -81.28549 31993 ft 484 kts 263°
2026-05-08 22:55 27.88194 -81.36090 32003 ft 487 kts 268°
2026-05-08 22:55 27.87877 -81.43746 32000 ft 488 kts 269°
2026-05-08 22:56 27.87680 -81.51422 31999 ft 489 kts 270°
2026-05-08 22:56 27.87529 -81.59110 31999 ft 489 kts 270°
2026-05-08 22:57 27.87397 -81.66797 31999 ft 489 kts 270°
2026-05-08 22:57 27.87275 -81.74495 31999 ft 489 kts 270°
2026-05-08 22:58 27.87160 -81.82146 31999 ft 489 kts 270°
2026-05-08 22:58 27.87052 -81.89838 31999 ft 489 kts 270°
2026-05-08 22:59 27.86949 -81.97540 31999 ft 489 kts 270°
2026-05-08 22:59 27.86851 -82.05232 31999 ft 489 kts 270°
2026-05-08 23:00 27.86760 -82.12933 31999 ft 489 kts 270°
2026-05-08 23:00 27.86674 -82.20632 31999 ft 489 kts 271°
2026-05-08 23:01 27.86594 -82.28281 31999 ft 489 kts 271°
2026-05-08 23:01 27.86520 -82.35886 31999 ft 489 kts 271°
2026-05-08 23:02 27.86314 -82.43635 29835 ft 487 kts 256°
2026-05-08 23:02 27.84739 -82.47140 24099 ft 529 kts 237°
2026-05-08 23:02 27.82726 -82.50617 19896 ft 518 kts 238°
2026-05-08 23:03 27.80819 -82.53928 16764 ft 486 kts 238°
2026-05-08 23:03 27.79074 -82.57028 14427 ft 449 kts 239°
2026-05-08 23:03 27.77517 -82.59925 12643 ft 413 kts 241°
2026-05-08 23:03 27.76161 -82.62636 11169 ft 381 kts 243°
2026-05-08 23:04 27.75000 -82.65213 9789 ft 357 kts 246°
2026-05-08 23:04 27.73862 -82.67635 8457 ft 340 kts 218°
2026-05-08 23:04 27.72971 -82.66809 10309 ft 203 kts 53°
2026-05-08 23:04 27.73878 -82.65517 8410 ft 255 kts 51°
2026-05-08 23:05 27.74948 -82.63895 7556 ft 257 kts 51°
2026-05-08 23:05 27.76039 -82.62283 6657 ft 259 kts 50°
2026-05-08 23:05 27.77127 -82.60649 5664 ft 262 kts 51°
2026-05-08 23:05 27.78230 -82.59027 4598 ft 265 kts 50°
2026-05-08 23:06 27.79206 -82.57625 3433 ft 177 kts 48°
2026-05-08 23:06 27.79968 -82.56751 2048 ft 161 kts 38°
2026-05-08 23:06 27.80862 -82.55915 1165 ft 166 kts 37°
2026-05-08 23:06 27.81738 -82.55130 584 ft 155 kts 35°
2026-05-08 23:07 27.82533 -82.54395 284 ft 137 kts 37°
2026-05-08 23:07 27.83214 -82.53744 126 ft 122 kts 37°
2026-05-08 23:07 27.83834 -82.53157 37 ft 114 kts 37°
2026-05-08 23:07 27.84411 -82.52606 21 ft 95 kts 38°
2026-05-08 23:08 27.84797 -82.52253 20 ft 49 kts 40°
2026-05-08 23:08 27.84891 -82.52089 20 ft 17 kts 128°
2026-05-08 23:08 27.84818 -82.52008 20 ft 12 kts 136°
2026-05-08 23:08 27.84801 -82.51941 20 ft 7 kts 72°
2026-05-08 23:09 27.84816 -82.51903 20 ft 4 kts 65°
2026-05-08 23:09 27.84822 -82.51888 20 ft 0 kts 65°
2026-05-08 23:09 27.84823 -82.51887 20 ft 0 kts 65°
2026-05-08 23:10 27.84824 -82.51883 20 ft 2 kts 65°
2026-05-08 23:10 27.84831 -82.51852 20 ft 6 kts 95°
2026-05-08 23:10 27.84790 -82.51822 20 ft 9 kts 167°
2026-05-08 23:10 27.84713 -82.51800 20 ft 13 kts 165°
2026-05-08 23:11 27.84610 -82.51783 20 ft 17 kts 189°
2026-05-08 23:11 27.84524 -82.51876 20 ft 19 kts 226°
2026-05-08 23:11 27.84416 -82.51985 20 ft 22 kts 219°
2026-05-08 23:11 27.84288 -82.52070 20 ft 19 kts 193°
2026-05-08 23:12 27.84188 -82.52124 20 ft 13 kts 242°
2026-05-08 23:12 27.84193 -82.52149 20 ft 0 kts 311°